TimeCST,TemperatureF,Dew PointF,Humidity,Sea Level PressureIn,VisibilityMPH,Wind Direction,Wind SpeedMPH,Gust SpeedMPH,PrecipitationIn,Events,Conditions,WindDirDegrees,DateUTC
12:15 AM,51.8,44.6,76,30.17,10.0,ESE,3.5,-,N/A,,Clear,110,2012-11-23 06:15:00
12:35 AM,51.8,44.6,76,30.17,10.0,SSE,4.6,-,N/A,,Clear,150,2012-11-23 06:35:00
12:55 AM,51.8,44.6,76,30.16,10.0,South,5.8,-,N/A,,Clear,170,2012-11-23 06:55:00
1:15 AM,51.8,44.6,76,30.16,10.0,SSE,6.9,-,N/A,,Scattered Clouds,150,2012-11-23 07:15:00
1:55 AM,51.8,44.6,76,30.16,10.0,South,8.1,-,N/A,,Clear,170,2012-11-23 07:55:00
2:15 AM,51.8,44.6,76,30.16,10.0,South,8.1,-,N/A,,Scattered Clouds,170,2012-11-23 08:15:00
2:35 AM,53.6,44.6,72,30.16,10.0,South,5.8,-,N/A,,Scattered Clouds,170,2012-11-23 08:35:00
2:55 AM,53.6,46.4,77,30.17,10.0,SW,5.8,-,N/A,,Mostly Cloudy,230,2012-11-23 08:55:00
3:15 AM,53.6,46.4,77,30.18,10.0,West,3.5,-,N/A,Rain,Light Rain,270,2012-11-23 09:15:00
3:35 AM,53.6,46.4,77,30.18,10.0,West,4.6,-,N/A,,Drizzle,270,2012-11-23 09:35:00
3:55 AM,53.6,50.0,88,30.19,5.0,WSW,3.5,-,0.03,Rain,Rain,250,2012-11-23 09:55:00
4:15 AM,53.6,50.0,88,30.19,4.0,Calm,Calm,-,0.04,Rain,Heavy Rain,0,2012-11-23 10:15:00
4:35 AM,53.6,51.8,94,30.18,5.0,NW,8.1,-,0.13,Rain,Heavy Rain,310,2012-11-23 10:35:00
4:55 AM,55.4,53.6,94,30.16,5.0,WNW,6.9,-,0.19,Rain,Rain,300,2012-11-23 10:55:00
5:15 AM,55.4,53.6,94,30.17,7.0,WSW,6.9,-,0.01,Rain,Rain,250,2012-11-23 11:15:00
5:35 AM,53.6,53.6,100,30.18,5.0,WSW,4.6,-,0.06,Rain,Rain,250,2012-11-23 11:35:00
5:55 AM,53.6,53.6,100,30.18,4.0,Calm,Calm,-,0.10,Rain,Light Rain,0,2012-11-23 11:55:00
6:15 AM,53.6,53.6,100,30.20,4.0,WSW,4.6,-,N/A,,Drizzle,250,2012-11-23 12:15:00
6:35 AM,55.4,55.4,100,30.21,5.0,WNW,5.8,-,0.02,Rain,Heavy Rain,290,2012-11-23 12:35:00
6:55 AM,55.4,55.4,100,30.22,7.0,NW,12.7,19.6,0.02,,Overcast,310,2012-11-23 12:55:00
7:15 AM,55.4,53.6,94,30.22,7.0,NW,15.0,-,N/A,,Overcast,320,2012-11-23 13:15:00
7:35 AM,55.4,53.6,94,30.23,10.0,NNW,15.0,21.9,N/A,,Overcast,330,2012-11-23 13:35:00
7:55 AM,55.4,51.8,88,30.24,10.0,NNW,18.4,21.9,N/A,,Overcast,340,2012-11-23 13:55:00
8:15 AM,55.4,51.8,88,30.25,10.0,North,16.1,23.0,N/A,,Overcast,350,2012-11-23 14:15:00
8:35 AM,55.4,51.8,88,30.26,10.0,North,17.3,-,N/A,,Scattered Clouds,360,2012-11-23 14:35:00
8:55 AM,53.6,50.0,88,30.27,10.0,NNW,18.4,-,N/A,,Scattered Clouds,340,2012-11-23 14:55:00
9:15 AM,53.6,41.0,62,30.28,10.0,North,20.7,26.5,N/A,,Scattered Clouds,350,2012-11-23 15:15:00
9:35 AM,51.8,41.0,67,30.30,10.0,North,18.4,25.3,N/A,,Scattered Clouds,350,2012-11-23 15:35:00
9:55 AM,53.6,42.8,67,30.30,10.0,North,20.7,-,N/A,,Clear,360,2012-11-23 15:55:00
10:15 AM,55.4,42.8,63,30.31,10.0,North,15.0,20.7,N/A,,Clear,350,2012-11-23 16:15:00
10:35 AM,55.4,39.2,54,30.30,10.0,North,18.4,24.2,N/A,,Clear,350,2012-11-23 16:35:00
10:55 AM,55.4,41.0,58,30.30,10.0,North,16.1,-,N/A,,Clear,360,2012-11-23 16:55:00
11:15 AM,55.4,37.4,51,30.29,10.0,North,16.1,21.9,N/A,,Clear,350,2012-11-23 17:15:00
11:35 AM,57.2,37.4,48,30.28,10.0,North,12.7,16.1,N/A,,Clear,350,2012-11-23 17:35:00
11:55 AM,59.0,35.6,42,30.28,10.0,NNW,16.1,23.0,N/A,,Clear,340,2012-11-23 17:55:00
12:15 PM,59.0,35.6,42,30.27,10.0,NNW,16.1,19.6,N/A,,Clear,330,2012-11-23 18:15:00
12:35 PM,59.0,35.6,42,30.26,10.0,NNW,15.0,-,N/A,,Clear,340,2012-11-23 18:35:00
12:55 PM,59.0,33.8,39,30.26,10.0,NNW,13.8,-,N/A,,Clear,340,2012-11-23 18:55:00
1:15 PM,59.0,35.6,42,30.26,10.0,North,11.5,-,N/A,,Clear,360,2012-11-23 19:15:00
1:35 PM,59.0,32.0,36,30.25,10.0,NNW,11.5,-,N/A,,Clear,340,2012-11-23 19:35:00
1:55 PM,59.0,33.8,39,30.25,10.0,NNW,10.4,-,N/A,,Clear,340,2012-11-23 19:55:00
2:15 PM,59.0,33.8,39,30.25,10.0,NNW,11.5,-,N/A,,Clear,330,2012-11-23 20:15:00
2:35 PM,59.0,33.8,39,30.25,10.0,NNW,16.1,19.6,N/A,,Clear,330,2012-11-23 20:35:00
2:55 PM,59.0,33.8,39,30.25,10.0,NW,13.8,-,N/A,,Clear,320,2012-11-23 20:55:00
3:15 PM,59.0,33.8,39,30.25,10.0,NNW,17.3,-,N/A,,Clear,330,2012-11-23 21:15:00
3:35 PM,59.0,33.8,39,30.26,10.0,NNW,15.0,-,N/A,,Clear,340,2012-11-23 21:35:00
3:55 PM,57.2,33.8,41,30.26,10.0,NNW,12.7,-,N/A,,Clear,330,2012-11-23 21:55:00
4:15 PM,55.4,33.8,44,30.26,10.0,NNW,12.7,17.3,N/A,,Clear,330,2012-11-23 22:15:00
4:35 PM,53.6,37.4,54,30.26,10.0,NNW,10.4,-,N/A,,Clear,340,2012-11-23 22:35:00
4:55 PM,53.6,35.6,51,30.26,10.0,North,12.7,-,N/A,,Clear,350,2012-11-23 22:55:00
5:15 PM,51.8,37.4,58,30.28,10.0,North,11.5,-,N/A,,Clear,350,2012-11-23 23:15:00
5:35 PM,50.0,35.6,58,30.28,10.0,NNW,12.7,-,N/A,,Clear,340,2012-11-23 23:35:00
5:55 PM,50.0,35.6,58,30.29,10.0,NNW,12.7,17.3,N/A,,Clear,340,2012-11-23 23:55:00
6:35 PM,48.2,35.6,62,30.29,10.0,North,10.4,-,N/A,,Clear,350,2012-11-24 00:35:00
6:55 PM,46.4,35.6,66,30.30,10.0,NNW,12.7,-,N/A,,Clear,340,2012-11-24 00:55:00
7:15 PM,48.2,33.8,58,30.31,10.0,North,17.3,21.9,N/A,,Clear,350,2012-11-24 01:15:00
7:35 PM,46.4,33.8,62,30.31,10.0,North,16.1,23.0,N/A,,Clear,350,2012-11-24 01:35:00
7:55 PM,46.4,33.8,62,30.32,10.0,NNW,13.8,-,N/A,,Clear,340,2012-11-24 01:55:00
8:15 PM,44.6,35.6,71,30.33,10.0,NNW,9.2,-,N/A,,Clear,340,2012-11-24 02:15:00
8:35 PM,42.8,35.6,76,30.33,10.0,NNW,11.5,-,N/A,,Clear,340,2012-11-24 02:35:00
8:55 PM,42.8,33.8,70,30.34,10.0,North,12.7,-,N/A,,Clear,350,2012-11-24 02:55:00
9:15 PM,41.0,33.8,76,30.34,10.0,NNW,9.2,-,N/A,,Clear,340,2012-11-24 03:15:00
9:35 PM,41.0,33.8,76,30.35,10.0,NNW,11.5,-,N/A,,Clear,340,2012-11-24 03:35:00
9:55 PM,41.0,32.0,70,30.35,10.0,NNW,11.5,-,N/A,,Clear,340,2012-11-24 03:55:00
10:15 PM,41.0,32.0,70,30.35,10.0,NNW,12.7,18.4,N/A,,Clear,340,2012-11-24 04:15:00
10:35 PM,41.0,32.0,70,30.36,10.0,NNW,10.4,-,N/A,,Clear,330,2012-11-24 04:35:00
10:55 PM,41.0,32.0,70,30.36,10.0,NNW,16.1,-,N/A,,Clear,340,2012-11-24 04:55:00
11:15 PM,41.0,30.2,65,30.36,10.0,NNW,15.0,-,N/A,,Clear,340,2012-11-24 05:15:00
11:35 PM,39.2,30.2,70,30.36,10.0,NNW,16.1,-,N/A,,Clear,340,2012-11-24 05:35:00
11:55 PM,39.2,30.2,70,30.36,10.0,NNW,15.0,20.7,N/A,,Clear,340,2012-11-24 05:55:00